METEREN Weather Reports


time (UTC)temp
F
wind
direction
speed
knots
gust
knots
rain 1hr
in
rain 24hr
in
rain mn
in
humidity
%
barometer
mb
20260507181518 0 0.0 0.0 0.00 0.00 0.00 1015.4
20260507180031 0 0.0 0.0 0.00 0.00 0.00 1015.3
20260507174516 60 360 2.6 5.2 0.00 0.00 0.00 62 1015.2
20260507173016 60 360 0.0 5.2 0.00 0.00 0.00 62 1015.3
20260507171509 60 360 2.6 6.1 0.00 0.00 0.00 61 1015.3
20260507170023 0 0.0 0.0 0.00 0.00 0.00 1015.3
20260507164504 61 360 0.9 3.5 0.00 0.00 0.00 57 1015.1
20260507163003 61 360 0.0 0.0 0.00 0.00 0.00 57 1015.1
20260507161505 61 360 0.0 3.5 0.00 0.00 0.00 56 1015.2
20260507160003 61 360 0.9 4.3 0.00 0.00 0.00 57 1015.0
20260507154603 0 0.0 0.0 0.00 0.00 0.00 1015.0
20260507153106 61 360 0.0 4.3 0.00 0.00 0.00 56 1015.0
20260507151556 61 360 1.7 4.3 0.00 0.00 0.00 57 1015.0
20260507150108 61 360 1.7 6.1 0.00 0.00 0.00 56 1015.0
20260507144555 61 360 0.9 4.3 0.00 0.00 0.00 56 1015.0
20260507143105 61 360 2.6 5.2 0.00 0.00 0.00 56 1015.0
20260507141557 61 360 2.6 6.1 0.00 0.00 0.00 55 1015.1
20260507140100 62 360 4.3 7.0 0.00 0.00 0.00 54 1015.1
20260507134554 64 360 3.5 7.0 0.00 0.00 0.00 51 1015.1
20260507133052 63 360 1.7 5.2 0.00 0.00 0.00 53 1015.1
20260507131552 63 117 2.6 5.2 0.00 0.00 0.00 55 1015.1
20260507124556 61 360 2.6 8.7 0.00 0.00 0.00 57 1015.1
20260507123050 60 360 5.2 10.4 0.00 0.00 0.00 59 1015.1
20260507121554 60 360 4.3 8.7 0.00 0.00 0.00 57 1015.0
20260507120048 59 360 1.7 5.2 0.00 0.00 0.00 55 1015.1
20260507114548 59 360 0.9 4.3 0.00 0.00 0.00 56 1015.1
20260507113049 60 360 0.0 7.0 0.00 0.00 0.00 58 1015.1
20260507111547 61 360 2.6 6.1 0.00 0.00 0.00 57 1015.3
20260507110056 63 360 0.0 6.1 0.00 0.00 0.00 55 1015.2
20260507104550 62 360 3.5 7.0 0.00 0.00 0.00 56 1015.2
20260507103106 61 360 3.5 7.8 0.00 0.00 0.00 57 1015.2
20260507101541 61 360 0.0 7.0 0.00 0.00 0.00 58 1015.2
20260507100044 59 360 1.7 7.8 0.00 0.00 0.00 62 1015.2
20260507094536 0 0.0 0.0 0.00 0.00 0.00 1015.1
20260507093030 0 0.0 0.0 0.00 0.00 0.00 1015.0
20260507091535 0 0.0 0.0 0.00 0.00 0.00 1015.0
20260507090024 0 0.0 0.0 0.00 0.00 0.00 1014.9
20260507084535 0 0.0 0.0 0.00 0.00 0.00 1014.9
20260507083013 0 0.0 0.0 0.00 0.00 0.00 1014.8
20260507081513 0 0.0 0.0 0.00 0.00 0.00 1014.8
20260507080005 0 0.0 0.0 0.00 0.00 0.00 1014.6
20260507074608 0 0.0 0.0 0.00 0.00 0.00 1014.7
20260507073056 0 0.0 0.0 0.00 0.00 0.00 1014.6
20260507071551 0 0.0 0.0 0.00 0.00 0.00 1014.7
20260507064553 51 360 4.3 7.8 0.00 0.00 0.00 76 1014.4
20260507063047 50 360 3.5 7.8 0.00 0.00 0.00 78 1014.3
20260507061543 49 360 4.3 8.7 0.00 0.00 0.00 80 1014.4
20260507060040 48 360 5.2 8.7 0.00 0.00 0.00 82 1014.4
20260507054559 48 360 4.3 7.0 0.00 0.00 0.00 84 1014.3
20260507053037 46 360 1.7 6.1 0.00 0.00 0.00 86 1014.2
20260507051534 46 360 2.6 5.2 0.00 0.00 0.00 87 1014.1
20260507050041 46 360 2.6 5.2 0.00 0.00 0.00 87 1013.9
20260507044527 46 360 2.6 6.1 0.00 0.00 0.00 87 1013.7
20260507043023 46 360 0.9 4.3 0.00 0.00 0.00 86 1013.7
20260507041522 46 360 0.9 4.3 0.00 0.00 0.00 86 1013.6
20260507040019 46 360 0.9 3.5 0.00 0.00 0.00 86 1013.4
20260507034521 46 360 0.9 4.3 0.00 0.00 0.00 86 1013.3
20260507033018 46 360 1.7 4.3 0.00 0.00 0.00 86 1013.3
20260507031516 47 360 1.7 6.1 0.00 0.00 0.00 85 1013.2
20260507030017 47 360 1.7 5.2 0.00 0.00 0.00 86 1013.2
20260507024515 47 360 3.5 5.2 0.00 0.00 0.00 85 1013.1
20260507023011 47 360 0.9 6.1 0.00 0.00 0.00 85 1013.0
20260507021510 47 360 2.6 6.1 0.00 0.00 0.00 85 1012.8
20260507020009 47 360 3.5 7.0 0.00 0.00 0.00 85 1012.7
20260507014506 48 360 3.5 6.1 0.00 0.00 0.00 84 1012.7
20260507013003 48 360 3.5 6.1 0.00 0.00 0.00 84 1012.7
20260507011502 48 360 1.7 5.2 0.00 0.00 0.00 84 1012.7
20260507010101 49 360 1.7 6.1 0.00 0.00 0.00 83 1012.5
20260507004558 49 360 1.7 5.2 0.00 0.00 0.00 82 1012.4
20260507003055 49 360 1.7 5.2 0.00 0.00 0.00 82 1012.3
20260507001602 50 360 3.5 6.1 0.00 0.00 0.00 81 1012.3
20260507000116 50 360 1.7 5.2 0.00 0.00 0.00 81 1012.2
20260506234607 50 360 2.6 5.2 0.00 0.00 0.00 80 1012.1
20260506233050 50 360 0.9 5.2 0.00 0.00 0.00 79 1011.9
20260506231545 51 360 2.6 5.2 0.00 0.00 0.00 79 1011.8
20260506230047 51 360 2.6 5.2 0.00 0.00 0.00 79 1011.9
20260506224547 51 360 4.3 9.6 0.00 0.00 0.00 80 1011.9
20260506223042 51 360 0.9 3.5 0.00 0.00 0.00 81 1011.8
20260506221551 51 360 0.9 3.5 0.00 0.00 0.00 80 1011.8
20260506220045 52 360 0.9 2.6 0.00 0.00 0.00 79 1011.6
20260506214540 52 360 0.0 0.0 0.00 0.00 0.00 78 1011.5
20260506213043 52 360 0.0 0.0 0.00 0.00 0.00 78 1011.3
20260506211544 52 360 0.0 0.0 0.00 0.00 0.00 78 1011.2
20260506210044 52 360 0.0 0.0 0.00 0.00 0.00 76 1011.1
20260506204535 52 360 0.0 0.0 0.00 0.00 0.00 76 1011.1
20260506203033 0 0.0 0.0 0.00 0.00 0.00 1011.1
20260506201534 0 0.0 0.0 0.00 0.00 0.00 1011.0
20260506200026 0 0.0 0.0 0.00 0.00 0.00 1011.0
20260506194519 52 360 0.0 3.5 0.00 0.00 0.00 73 1010.8
20260506193027 0 0.0 0.0 0.00 0.00 0.00 1010.7
20260506191513 53 360 0.9 2.6 0.00 0.00 0.00 72 1010.4
20260506190012 53 360 0.9 4.3 0.00 0.00 0.00 72 1010.3
20260506184510 53 360 0.9 5.2 0.00 0.00 0.00 71 1010.1
20260506183010 53 360 1.7 3.5 0.00 0.00 0.00 71 1010.0